[[{"header":{"parameterUnit":"m.s-1","parameterCategory":1,"la1":30.2991,"la2":30.254,"lo1":-89.0895,"lo2":-89.0444,"dy":0.0017,"dx":0.0017,"nx":28,"ny":28,"refTime":"2024-08-02T09:00:00:Z","depth":0,"parameterNumber":2,"parameterNumberName":"U-component_of_WINDS"},"data":[0,0,0,0,0,0,0,0,0,0,0,0,0,0,0,0,0,0,0,0,0,0,0,0,0,0,0,0,0,0,0,0,0,0,0,0,0,0,0,0,0,0,0,0,0,0,0,0,0,0,0,0,0,0,0,0,0,0,3.9574,3.9575,0,3.9674,3.9675,3.9676,3.9588,3.9584,3.9581,3.9577,3.9685,3.9691,3.9697,0,0,0,0,0,0,0,0,0,0,0,0,0,3.9312,3.9317,3.9574,3.9575,3.9577,3.9674,3.9675,3.9677,3.9589,3.9584,3.958,3.9576,3.9683,3.969,3.9698,0,0,0,0,0,0,0,0,0,0,0,0,0,3.942,3.9319,3.9574,3.9544,3.9543,3.9674,3.9675,3.9677,3.959,3.9584,3.9579,3.9574,3.968,3.969,3.9699,3.9866,0,0,3.9728,3.9732,0,0,0,0,0,0,0,0,3.9414,3.943,3.9547,3.9547,3.9545,3.9613,3.9622,3.9741,3.9591,3.9572,3.9577,3.9571,3.9666,3.9676,3.9707,3.9871,3.9876,3.9728,3.9734,3.9738,3.9741,0,0,0,0,0,0,0,3.9407,3.9425,3.9614,3.9549,3.9548,3.9527,3.9537,3.9644,3.9648,3.9573,3.9567,3.958,3.9664,3.9698,3.9709,3.9877,3.9728,3.9736,3.9742,3.9746,4.0183,4.0189,0,0,0,0,0,0,3.9402,3.9419,3.9611,3.9617,3.9465,3.9537,3.9547,3.9597,3.9647,3.9649,3.9584,3.9575,3.9685,3.9698,3.9712,3.9911,3.9738,3.9747,3.9752,4.0178,4.0185,4.0191,0,0,0,0,0,0,3.9396,3.9419,3.9607,3.9516,3.9539,3.9547,3.9603,3.9602,3.9635,3.9655,3.9656,3.9618,3.9681,3.9699,3.9828,3.9914,3.9751,3.976,4.017,4.018,4.0188,4.031,0,0,0,0,0,0,3.9389,3.9418,3.9481,3.9518,3.9544,3.972,3.9609,3.9607,3.9651,3.964,3.9687,3.969,3.9678,3.9814,3.9837,3.9924,3.9767,4.0163,4.0175,4.0185,4.0299,4.0322,4.0343,0,0,0,0,0,3.938,3.9512,3.9484,3.9508,3.9622,3.9725,3.9739,3.9722,3.9658,3.9722,3.9735,3.9688,3.99,3.9828,3.9853,3.9944,4.0157,4.0171,4.0184,4.0289,4.0318,4.0342,0,0,0,0,0,0,3.9486,3.9517,3.9486,3.9634,3.9677,3.9709,3.9789,3.9753,3.9817,3.9804,3.9781,3.9792,3.9929,3.9949,3.9868,4.0108,4.0019,4.0038,4.009,4.0118,4.0139,4.0132,3.9775,0,0,0,0,0,3.9526,3.9606,3.9629,3.9757,3.978,3.9781,3.9825,3.9808,3.9853,3.9871,3.9893,3.994,4.0017,4.0068,4.014,4.0301,4.0311,4.0376,4.0398,4.0416,4.0433,4.052,4.0549,4.0236,4.0235,4.0235,0,0,3.9611,3.9638,3.969,3.9779,3.9811,3.9895,3.9797,3.9891,3.9953,3.9886,4.0008,4.0027,4.0077,4.0223,4.0288,4.0244,4.0521,4.0433,4.0447,4.0454,4.0537,4.0566,4.0593,4.0245,4.0243,4.0242,0,0,3.9808,3.9836,3.9946,3.9979,4.0027,4.0027,4.0054,4.0091,4.01,4.0223,4.0174,4.0249,4.0382,4.042,4.0456,4.0668,4.0628,4.0692,4.0807,4.0892,4.0917,4.0939,4.1015,4.1042,4.0709,4.0709,4.071,0,3.9908,4.0031,4.0008,4.0104,4.0146,4.0086,4.0198,4.0232,4.0303,4.0333,4.0282,4.0448,4.0478,4.0631,4.0683,4.0715,4.0745,4.0687,4.0915,4.0937,4.0957,4.1029,4.1058,4.0717,4.0716,4.0715,4.0714,0,4.0152,4.0238,4.0322,4.0389,4.0439,4.0544,4.0537,4.0591,4.057,4.0575,4.0701,4.0734,4.0812,4.0847,4.0828,4.0999,4.097,4.0918,4.0828,4.0995,4.1062,4.109,4.0728,4.0725,4.0723,4.0721,0,0,4.042,4.0471,4.0503,4.0532,4.0581,4.0648,4.075,4.0824,4.0871,4.0922,4.1007,4.1121,4.1073,4.1115,4.1099,4.1173,4.1339,4.1112,4.1113,4.1153,4.1531,4.157,4.1602,4.1312,4.1318,4.1322,4.1526,0,4.0619,4.0794,4.0775,4.0943,4.1022,4.0967,4.1056,4.1096,4.1104,4.1174,4.1183,4.1264,4.1194,4.1219,4.129,4.1304,4.1415,4.1289,4.1393,4.1397,4.1383,4.1637,4.1679,4.1871,4.1553,4.1557,4.156,0,4.0875,4.0933,4.1107,4.1143,4.1176,4.1256,4.1322,4.139,4.1435,4.1435,4.1482,4.1453,4.1557,4.1464,4.1607,4.1522,4.1563,4.1577,4.1584,4.1593,4.1489,4.1655,4.1931,4.1961,4.1601,4.1598,4.1595,0,4.1054,4.1175,4.1295,4.1322,4.1367,4.1424,4.1446,4.1485,4.1531,4.159,4.1619,4.169,4.173,4.1786,4.1777,4.171,4.1924,4.183,4.1928,4.1929,4.1976,4.1974,4.2264,4.2003,4.2002,4.2002,4.2001,0,4.1279,4.1388,4.1375,4.145,4.157,4.1549,4.167,4.1685,4.172,4.1797,4.1754,4.1828,4.1812,4.1885,4.188,4.1999,4.2018,4.2022,4.2019,4.2026,4.2026,4.2054,4.204,4.2009,4.2007,4.2006,4.2005,0,4.1499,4.1495,4.1622,4.1653,4.1664,4.1752,4.1779,4.185,4.1854,4.1952,4.1974,4.1981,4.2065,4.2062,4.2158,4.2154,4.2302,4.2284,4.2286,4.2283,4.2381,4.2372,4.2701,4.2743,4.2453,4.2456,4.2458,0,4.1643,4.1725,4.1765,4.1812,4.1837,4.1915,4.1961,4.1943,4.1993,4.205,4.2114,4.2194,4.2257,4.2395,4.2409,4.2483,4.2466,4.2576,4.2477,4.2482,4.2469,4.2464,4.2473,4.2596,4.26,4.2602,4.2604,0,4.1899,4.1893,4.196,4.2027,4.2082,4.2134,4.2182,4.2224,4.2211,4.2269,4.2354,4.2403,4.25,4.258,4.2651,4.2675,4.2639,4.2635,4.2662,4.267,4.2668,4.2671,4.234,4.2628,4.2626,4.2624,4.2623,4.2622,4.2086,4.2157,4.2196,4.2272,4.2305,4.235,4.2418,4.2429,4.2499,4.2576,4.2561,4.2657,4.27,4.279,4.282,4.2896,4.2857,4.2895,4.2905,4.2915,4.2927,4.2656,4.2908,4.2908,4.2907,4.2907,4.2906,0,4.2341,4.2363,4.2433,4.25,4.256,4.2518,4.2568,4.2622,4.2706,4.2748,4.281,4.2908,4.2986,4.3006,4.3081,4.3137,4.3123,4.3158,4.3154,4.316,4.2957,4.2926,4.3168,4.3168,4.3168,4.3168,4.3168,4.3168,4.2481,4.2598,4.2596,4.273,4.2751,4.2842,4.2875,4.2917,4.295,4.3061,4.3124,4.3136,4.317,4.3247,4.3317,4.3321,4.3351,4.3393,4.3391,4.3201,4.3174,4.3149,4.3121,4.34,4.34,4.3588,4.3589,4.3591]},{"header":{"parameterUnit":"m.s-1","parameterCategory":1,"la1":30.2991,"la2":30.254,"lo1":-89.0895,"lo2":-89.0444,"dy":0.0017,"dx":0.0017,"nx":28,"ny":28,"refTime":"2024-08-02T09:00:00:Z","depth":0,"parameterNumber":3,"parameterNumberName":"V-component_of_WINDS"},"data":[0,0,0,0,0,0,0,0,0,0,0,0,0,0,0,0,0,0,0,0,0,0,0,0,0,0,0,0,0,0,0,0,0,0,0,0,0,0,0,0,0,0,0,0,0,0,0,0,0,0,0,0,0,0,0,0,0,0,0.6344,0.6344,0,0.6312,0.6312,0.6311,0.6292,0.6292,0.6291,0.6291,0.6257,0.6256,0.6256,0,0,0,0,0,0,0,0,0,0,0,0,0,0.6385,0.6385,0.6344,0.6344,0.6343,0.6312,0.6312,0.6311,0.6292,0.6291,0.6291,0.6291,0.6257,0.6257,0.6256,0,0,0,0,0,0,0,0,0,0,0,0,0,0.6362,0.6385,0.6344,0.633,0.6328,0.6312,0.6312,0.6311,0.6292,0.6291,0.6291,0.6291,0.6258,0.6257,0.6255,0.6251,0,0,0.6252,0.6251,0,0,0,0,0,0,0,0,0.6363,0.636,0.6332,0.6331,0.6329,0.6306,0.6314,0.6291,0.6292,0.6305,0.6291,0.6291,0.6273,0.6271,0.6265,0.6249,0.6248,0.6252,0.6251,0.625,0.625,0,0,0,0,0,0,0,0.6365,0.6362,0.6331,0.6332,0.633,0.6324,0.6321,0.6309,0.6291,0.6304,0.6303,0.6299,0.6272,0.6266,0.6264,0.6248,0.6252,0.6251,0.625,0.6249,0.6225,0.6225,0,0,0,0,0,0,0.6369,0.6363,0.6332,0.633,0.6346,0.6323,0.632,0.6313,0.6291,0.6287,0.6299,0.6299,0.6269,0.6266,0.6263,0.6256,0.625,0.6249,0.6249,0.6225,0.6225,0.6225,0,0,0,0,0,0,0.637,0.6367,0.6334,0.6346,0.6342,0.6323,0.6316,0.6313,0.6307,0.6287,0.6283,0.6297,0.6268,0.6265,0.6254,0.6254,0.6249,0.6248,0.6225,0.6225,0.6225,0.6242,0,0,0,0,0,0,0.6371,0.6367,0.6366,0.6347,0.6341,0.6326,0.6316,0.6312,0.6305,0.6303,0.6284,0.628,0.6268,0.6256,0.6253,0.6252,0.6247,0.6225,0.6225,0.6225,0.6241,0.6242,0.6243,0,0,0,0,0,0.6373,0.6372,0.6366,0.6362,0.6339,0.6326,0.6323,0.6309,0.6305,0.6303,0.629,0.6281,0.6255,0.6255,0.6251,0.6251,0.6225,0.6225,0.6225,0.624,0.6242,0.6243,0,0,0,0,0,0,0.6391,0.6369,0.6362,0.6355,0.6343,0.6323,0.632,0.6311,0.63,0.6299,0.6281,0.6277,0.6268,0.6258,0.6259,0.6245,0.6239,0.6238,0.6251,0.6253,0.6254,0.6257,0.6246,0,0,0,0,0,0.6395,0.6387,0.6367,0.6362,0.6356,0.6339,0.6333,0.6323,0.631,0.6304,0.6291,0.6277,0.6266,0.6259,0.6247,0.6239,0.6234,0.6237,0.6238,0.6239,0.6239,0.6233,0.6234,0.6226,0.6226,0.6226,0,0,0.6401,0.6388,0.6384,0.6366,0.6355,0.6346,0.6335,0.6327,0.6319,0.6303,0.6292,0.6281,0.6265,0.6256,0.6251,0.6247,0.624,0.6239,0.624,0.624,0.6233,0.6234,0.6235,0.6226,0.6226,0.6226,0,0,0.6409,0.6398,0.6393,0.6382,0.6366,0.6355,0.6353,0.6334,0.6327,0.6316,0.6303,0.6294,0.6275,0.6263,0.6255,0.6257,0.6247,0.6253,0.626,0.6254,0.6255,0.6255,0.6255,0.6255,0.6253,0.6253,0.6253,0,0.6419,0.6406,0.6391,0.6383,0.6375,0.6359,0.6353,0.6343,0.6324,0.6318,0.6315,0.629,0.6278,0.6265,0.6265,0.6259,0.6256,0.6256,0.6256,0.6256,0.6256,0.6256,0.6256,0.6254,0.6254,0.6254,0.6254,0,0.6419,0.641,0.6407,0.6389,0.638,0.6373,0.6357,0.635,0.634,0.6329,0.6317,0.6302,0.6286,0.6282,0.6273,0.6268,0.6266,0.6259,0.6253,0.6258,0.6258,0.6258,0.6255,0.6255,0.6255,0.6254,0,0,0.6438,0.6411,0.6411,0.6402,0.6382,0.6374,0.6366,0.6351,0.6345,0.6332,0.6324,0.6307,0.6301,0.6291,0.6281,0.6276,0.6277,0.6269,0.6269,0.6271,0.6269,0.6274,0.6274,0.627,0.627,0.627,0.627,0,0.6442,0.6427,0.6413,0.6403,0.6393,0.6378,0.637,0.6357,0.6346,0.6335,0.6322,0.6311,0.6303,0.6298,0.6292,0.6278,0.6276,0.6278,0.6262,0.6262,0.6267,0.6274,0.628,0.6281,0.627,0.627,0.627,0,0.6446,0.6434,0.6422,0.6403,0.6398,0.6392,0.6377,0.6367,0.6351,0.6343,0.6332,0.6321,0.631,0.6304,0.6288,0.629,0.6282,0.6274,0.6274,0.6272,0.6266,0.6272,0.6281,0.6281,0.627,0.627,0.627,0,0.6461,0.6441,0.6431,0.6424,0.6402,0.6397,0.6387,0.6371,0.6363,0.6349,0.6343,0.6328,0.632,0.6308,0.6293,0.629,0.6278,0.6271,0.627,0.6271,0.6269,0.6269,0.6276,0.6264,0.6264,0.6264,0.6264,0,0.6467,0.6461,0.6438,0.6432,0.6424,0.6407,0.6399,0.6388,0.6373,0.6364,0.6349,0.6341,0.6321,0.6309,0.6297,0.6285,0.6282,0.6274,0.6271,0.6276,0.6276,0.627,0.627,0.6264,0.6264,0.6264,0.6264,0,0.6482,0.6467,0.6455,0.6434,0.6429,0.6424,0.6405,0.6398,0.6386,0.6374,0.6371,0.6351,0.6337,0.632,0.63,0.6291,0.6281,0.6276,0.6286,0.6284,0.6284,0.6284,0.6287,0.6287,0.6276,0.6276,0.6276,0,0.6488,0.6482,0.6461,0.6454,0.6444,0.6433,0.6425,0.6407,0.6399,0.6379,0.6374,0.6359,0.6346,0.6324,0.6308,0.6292,0.6287,0.6289,0.6284,0.6289,0.6286,0.6287,0.6285,0.629,0.629,0.629,0.629,0,0.6498,0.6491,0.6479,0.6464,0.6454,0.6442,0.6429,0.6424,0.6403,0.6394,0.638,0.637,0.6349,0.6334,0.6316,0.6305,0.6294,0.6292,0.6291,0.6295,0.6302,0.6298,0.6289,0.6292,0.6292,0.6292,0.6292,0.6292,0.6508,0.6503,0.6486,0.6473,0.6462,0.6449,0.6442,0.6428,0.6416,0.6398,0.6388,0.6374,0.6357,0.6332,0.6321,0.6308,0.6305,0.6303,0.6303,0.6302,0.6304,0.6303,0.6305,0.6305,0.6305,0.6305,0.6305,0,0.6518,0.6507,0.6495,0.6477,0.6466,0.6457,0.6442,0.6433,0.6421,0.6406,0.6394,0.6376,0.6361,0.6343,0.6326,0.632,0.6314,0.6316,0.6316,0.6313,0.6308,0.6311,0.6321,0.6321,0.6321,0.6321,0.6321,0.6321,0.6522,0.6511,0.6502,0.6484,0.6473,0.6459,0.6451,0.6439,0.6427,0.6408,0.6396,0.6384,0.6367,0.6349,0.6334,0.6329,0.6323,0.6327,0.632,0.6315,0.6314,0.6313,0.6315,0.6325,0.6326,0.6326,0.6326,0.6326]}]]